Vertical_Velocity
-1 -0 -2 -2 -2 -2 -0 3 -2 -7 -5 2 1 -4 -6 -2 0 1 -1 -2 -2 -2 -3 -2 -2 -3 -5 -3 -1 -0 1 1 0 -0 -0 0 -0 -1 -2 -2 -2 -2 -1 -1 -1 -1 -1 -2 -2 -2 -2 -2 -2 -2 -3 -3 -3 -3 -3 -3 -3 -2 -2 -2 -2 -2 -1 -1 -1 -1 -1 -1 -1 -1 -1 -0 -0 -0 -1 -1 -1 -1 -1 -1 -1 -2
-1 0 1 -1 -2 -3 -2 4 3 -2 -10 -4 -0 0 -4 -4 -2 1 -0 -1 -1 -2 -4 -5 -4 -2 -2 -2 -2 -2 -0 1 1 0 -0 -0 -0 -1 -1 -1 -1 -1 -1 -0 -0 -1 -1 -2 -2 -2 -2 -3 -3 -3 -4 -4 -5 -5 -6 -6 -5 -5 -4 -4 -3 -3 -2 -2 -2 -1 -1 -1 -1 -1 -1 -1 -1 -0 -1 -1 -1 -1 -1 -1 -1 -2
-2 -2 2 1 -1 -3 -4 -0 3 4 -2 -6 -4 -1 -1 -4 -3 -1 -1 -3 -2 -1 -1 -4 -5 -4 -2 -1 -1 -2 -1 0 1 1 -0 -0 -0 -0 -1 -1 -1 -0 -0 0 -0 -0 -1 -2 -2 -2 -2 -2 -2 -2 -3 -4 -4 -5 -6 -6 -6 -6 -6 -6 -5 -4 -4 -3 -3 -3 -2 -2 -2 -2 -2 -2 -1 -1 -1 -1 -1 -1 -1 -2 -2 -2
-2 -4 0 2 1 -1 -1 -3 -2 0 3 -2 -3 -2 0 -2 -3 -4 -4 -5 -4 -3 0 -1 -3 -5 -4 -2 -1 -1 -1 -0 1 1 -0 -0 -0 -1 -1 -1 -0 -0 0 1 0 -0 -1 -1 -1 -1 -1 -1 -1 -1 -1 -2 -2 -3 -4 -5 -6 -6 -6 -5 -5 -5 -4 -4 -4 -3 -3 -3 -2 -2 -2 -2 -2 -2 -1 -1 -1 -1 -1 -2 -2 -2
0 -3 -2 0 -1 -3 -1 -0 -1 -2 -1 -0 -2 -4 -4 -1 -2 -3 -5 -5 -6 -6 -4 -2 -2 -3 -4 -4 -3 -2 -2 -0 0 0 -0 -1 -1 -1 -1 -1 -0 0 1 1 1 0 -0 -0 -0 -0 -0 0 0 0 -0 -1 -1 -2 -3 -4 -5 -5 -5 -4 -4 -3 -3 -3 -4 -3 -3 -3 -3 -2 -2 -2 -2 -2 -2 -2 -2 -2 -2 -2 -2 -2
1 -1 -4 -2 -1 -2 -4 -3 -0 1 -2 -0 -1 -4 -8 -6 -4 -3 -3 -2 -4 -6 -7 -5 -3 -2 -2 -2 -3 -3 -3 -1 -0 0 -0 -1 -1 -1 -1 -0 1 1 2 2 1 1 0 0 0 0 1 1 1 0 0 -0 -1 -2 -3 -4 -4 -4 -3 -2 -2 -2 -2 -2 -2 -3 -3 -3 -3 -2 -2 -2 -2 -2 -2 -2 -2 -2 -2 -2 -2 -2
1 4 1 -4 -3 0 1 -3 -4 -4 -4 -1 -0 -1 -6 -6 -6 -6 -5 -2 -1 -2 -5 -5 -4 -4 -3 -2 -2 -2 -2 -2 -0 0 0 -0 -0 -0 0 1 1 2 2 2 1 1 1 1 1 1 1 1 1 1 0 -0 -1 -2 -3 -4 -4 -3 -3 -2 -2 -2 -2 -2 -2 -2 -2 -2 -2 -2 -2 -2 -2 -2 -2 -2 -2 -2 -2 -2 -2 -2
-4 2 8 -0 -6 -6 2 5 0 -7 -13 -7 -3 -2 -4 -3 -2 -3 -7 -7 -4 -1 -1 -3 -4 -4 -3 -2 -2 -1 -1 -2 -2 -1 -0 -0 -0 0 1 1 2 2 2 2 1 1 1 1 1 1 1 1 1 1 0 -0 -1 -2 -3 -3 -4 -4 -3 -3 -2 -2 -1 -1 -1 -1 -1 -1 -1 -1 -1 -2 -2 -2 -2 -2 -2 -1 -1 -2 -2 -2
-6 -6 1 4 -2 -10 -12 1 7 4 -9 -10 -8 -6 -9 -7 -1 2 0 -6 -7 -4 -1 -1 -2 -3 -2 -2 -1 -1 -1 -1 -1 -1 -1 -1 -1 -1 0 1 1 2 2 1 1 1 1 2 2 1 1 1 1 0 -0 -1 -2 -2 -3 -3 -4 -4 -4 -3 -3 -2 -1 -1 -1 -0 -0 0 0 0 -0 -0 -0 -1 -1 -1 -1 -1 -1 -1 -1 -1
-2 -5 -7 -1 0 -3 -14 -11 -2 6 3 -3 -5 -6 -10 -14 -10 -4 4 1 -3 -5 -3 -2 -3 -4 -3 -1 -1 -1 -1 -1 0 1 1 -0 -1 -1 -1 -1 -1 -0 0 0 1 1 2 2 2 1 1 1 1 0 -0 -1 -2 -3 -4 -4 -4 -3 -2 -2 -2 -1 -1 -1 -0 -0 0 1 1 1 1 1 1 0 0 -0 -0 -0 -1 -1 -0 -0
-2 -2 -4 -4 -2 -0 -4 -8 -7 -4 -1 -2 -1 1 2 -8 -13 -12 -6 -1 -1 -2 -3 -2 -3 -4 -5 -4 -2 -1 -1 -2 -1 0 1 1 1 -0 -2 -1 -1 -1 -1 -0 1 1 3 3 2 2 1 1 1 0 -0 -2 -3 -4 -4 -4 -3 -2 -1 -1 -0 0 0 0 0 0 0 1 1 1 1 1 1 1 0 0 0 -0 -0 -0 -0 -0
-4 -5 -6 -5 -4 -3 -2 -2 -2 -3 -4 -6 -5 -1 5 2 -5 -10 -10 -7 -4 -3 -4 -4 -3 -3 -2 -4 -4 -4 -2 -3 -4 -3 -2 -1 -0 -0 -2 -2 -2 -1 -0 -0 1 2 3 3 2 2 2 2 1 0 -1 -3 -4 -4 -4 -3 -2 -0 0 1 1 2 2 2 1 1 0 0 0 0 0 0 0 -0 0 0 0 -0 -0 -0 -0 -0
-2 -4 -6 -6 -6 -5 -4 -2 -1 -0 0 -3 -5 -5 -2 0 -1 -5 -7 -7 -6 -4 -4 -6 -5 -4 -0 -0 -1 -3 -4 -6 -6 -5 -4 -2 -1 -1 -3 -4 -4 -2 -1 -2 -0 2 3 2 2 2 3 2 1 0 -2 -4 -4 -4 -3 -1 -0 1 1 2 2 2 1 1 1 1 0 0 0 -0 -0 -0 -0 -0 -0 -1 -1 -1 -1 -1 -0 -0
-4 -3 -2 -2 -3 -4 -3 -2 -2 -1 -0 -2 -4 -4 -4 -2 -2 -4 -5 -6 -5 -4 -4 -5 -6 -4 -1 1 1 -1 -4 -8 -10 -9 -5 -1 1 0 -3 -6 -6 -3 -1 -3 -2 0 3 2 1 1 3 3 1 -1 -3 -4 -4 -3 -1 0 1 1 1 1 1 1 0 0 0 0 0 0 0 0 0 -0 -0 -1 -1 -1 -2 -2 -2 -2 -1 -1
-5 -5 -4 -2 -1 -1 -1 -2 -3 -3 -1 -1 -3 -4 -4 -4 -4 -4 -5 -6 -5 -5 -5 -6 -6 -3 1 4 3 0 -4 -9 -12 -12 -9 -3 2 4 -0 -6 -7 -5 -0 -2 -2 -0 3 3 1 0 1 2 0 -2 -4 -4 -3 -2 0 0 1 0 0 -0 -0 -0 -0 -0 -0 -0 -0 -0 0 0 0 -0 -1 -1 -1 -2 -2 -2 -2 -2 -2 -2
-2 -4 -5 -4 -2 -0 1 -1 -3 -4 -3 -2 -2 -3 -5 -5 -4 -4 -4 -5 -5 -5 -5 -8 -10 -9 -4 5 8 6 0 -7 -12 -13 -11 -7 1 6 5 -4 -8 -7 -1 0 0 0 2 2 2 2 1 1 -0 -2 -4 -4 -2 -1 -0 -0 -0 -1 -1 -1 -1 -0 -1 -1 -1 -1 -1 -1 -1 -1 -1 -1 -1 -1 -1 -1 -1 -1 -1 -2 -2 -2
-0 -2 -3 -3 -2 -2 -1 -1 -2 -2 -3 -3 -3 -2 -3 -4 -4 -3 -4 -5 -5 -5 -4 -5 -8 -12 -15 -7 3 10 8 -2 -10 -13 -11 -9 -2 5 8 -0 -6 -8 -4 1 2 2 1 1 1 2 2 1 -1 -2 -3 -3 -2 -1 -0 -1 -1 -1 -1 -0 -0 -0 -0 -1 -1 -1 -1 -1 -1 -1 -1 -1 -1 -1 -0 0 0 -0 -0 -0 -1 -1
-1 -1 -3 -2 -1 -1 -3 -4 -2 -0 -1 -3 -4 -4 -3 -3 -3 -3 -3 -2 -3 -4 -5 -5 -6 -8 -11 -14 -6 4 11 2 -6 -12 -12 -9 -3 4 8 3 -3 -6 -5 -0 2 3 1 1 1 2 2 1 -0 -2 -2 -2 -1 -1 -1 -1 -1 -1 -0 -0 -0 -0 -0 -0 -1 -1 -1 -1 -1 -1 -1 -1 -1 -0 0 0 0 0 0 0 -0 -0
-2 -1 -3 -3 -2 -1 -2 -4 -3 -2 -0 -2 -4 -5 -5 -4 -3 -2 -2 -2 -1 -2 -4 -5 -7 -7 -6 -10 -6 2 10 4 -3 -9 -11 -11 -6 1 8 3 -2 -5 -4 0 2 2 0 1 2 4 4 2 1 -1 -1 -1 -1 -1 -1 -1 -1 -1 -1 -1 -1 -1 -0 -0 -0 -1 -1 -1 -1 -1 -1 -1 -1 -1 -0 -0 -0 -0 -0 -0 -0 -1
-2 -1 -2 -4 -4 -3 -1 -2 -2 -2 -2 -2 -3 -4 -5 -4 -3 -3 -3 -2 -3 -4 -4 -5 -6 -6 -5 -8 -5 0 8 4 -1 -6 -9 -10 -7 -0 7 2 -3 -6 -4 1 3 2 -0 -0 1 4 4 3 1 -0 -1 -1 -1 -1 -1 -1 -1 -1 -1 -1 -1 -1 -1 -1 -1 -1 -0 -0 -1 -1 -1 -1 -0 -0 -0 -0 -0 -0 -0 -1 -1 -1
-2 -0 1 -2 -5 -6 -4 -2 -1 -1 -2 -2 -3 -4 -4 -4 -4 -4 -4 -3 -4 -4 -4 -4 -5 -5 -3 -5 -4 -0 7 4 -0 -6 -10 -11 -7 -0 6 2 -4 -7 -6 -0 2 3 -0 -0 1 3 4 3 2 1 -1 -1 -1 -1 -1 -1 -1 -1 -1 -1 -2 -1 -1 -1 -1 -1 -1 -1 -1 -1 -1 -0 -0 -0 -0 -0 -0 -1 -1 -1 -1 -1
-4 -2 1 0 -2 -4 -5 -3 -2 -0 -0 -1 -2 -2 -4 -5 -6 -7 -6 -4 -3 -3 -2 -2 -2 -2 -1 -3 -2 1 6 5 1 -5 -12 -16 -13 -6 6 2 -3 -7 -7 -3 -0 1 1 1 2 3 4 4 3 2 0 -0 -0 -0 -0 -0 -0 -0 -0 -0 -1 -1 -1 -1 -1 -1 -1 -1 -1 -1 -1 -1 -0 -0 -1 -1 -1 -1 -1 -1 -1 -1
-4 -3 -1 -0 -1 -2 -4 -3 -2 -0 1 1 -0 -2 -4 -4 -5 -5 -5 -3 -2 -2 -3 -4 -3 -2 1 0 0 1 5 5 2 -4 -10 -17 -18 -12 1 1 -3 -7 -7 -3 -2 -2 -1 1 3 5 5 5 4 3 1 0 0 -0 -0 0 1 1 2 2 2 1 1 1 1 1 1 0 0 0 -0 -0 -0 -0 -0 -0 -1 -1 -1 -1 -1 -1
-2 -2 -2 -1 -1 -1 -1 -1 -1 -0 0 -1 -2 -2 -2 -2 -2 -2 -2 -1 -1 -2 -4 -5 -5 -4 -1 1 1 1 3 4 2 -2 -7 -14 -15 -11 -2 -1 -4 -8 -7 -1 0 -1 -3 0 4 6 5 5 4 3 2 1 1 0 0 1 2 3 3 3 3 2 2 1 1 1 1 2 2 2 2 1 1 1 0 0 -0 -0 -1 -1 -2 -2
-1 -1 -1 -1 -0 1 1 0 -0 -0 -0 -0 -0 -0 -0 -1 -1 -1 1 2 2 0 -2 -4 -5 -5 -3 -2 -2 -1 3 6 6 3 -3 -11 -14 -11 -1 1 -3 -8 -9 -2 1 1 -3 -1 2 6 6 5 4 4 2 2 1 1 1 1 2 2 3 2 2 1 1 1 1 1 2 2 2 2 2 2 1 1 1 1 0 -0 -0 -1 -2 -2
-1 -0 -0 1 2 2 2 1 1 1 1 2 1 -0 -2 -3 -4 -3 -0 1 1 -0 -4 -5 -6 -5 -4 -4 -4 -2 2 6 8 7 1 -8 -13 -12 -3 1 -2 -7 -10 -5 -0 1 -2 -2 1 5 7 6 5 4 3 3 2 1 1 2 2 2 2 1 1 1 1 1 2 2 3 3 3 2 2 1 1 1 0 0 -0 -0 -1 -1 -2 -3
1 1 2 3 3 3 2 1 1 2 2 3 2 1 -2 -4 -6 -6 -4 -1 -1 -2 -4 -6 -7 -7 -6 -5 -4 -2 1 6 8 7 2 -5 -9 -10 -6 -2 -3 -7 -10 -7 -2 2 0 -1 1 4 6 6 5 5 4 3 3 2 2 2 2 2 1 1 1 2 2 3 3 3 3 3 2 1 1 0 -0 -0 -0 -0 -1 -1 -1 -1 -2 -3
3 3 4 3 2 1 0 0 1 1 2 2 2 1 -0 -3 -4 -5 -3 -1 -1 -2 -4 -4 -6 -7 -8 -7 -5 -2 2 7 8 6 1 -4 -7 -8 -6 -4 -4 -6 -8 -9 -5 1 6 3 2 2 3 4 4 4 4 4 3 2 2 2 2 2 3 3 2 2 3 3 3 3 3 2 2 1 0 0 -0 -0 -0 -0 -0 -0 -0 -0 -1 -2
4 4 3 2 1 0 -0 -0 1 1 2 2 2 1 0 -0 -1 -2 -2 -1 -1 -2 -3 -3 -3 -5 -8 -8 -7 -4 1 8 8 5 -2 -4 -6 -6 -2 -2 -3 -4 -7 -12 -11 -4 8 9 6 1 -0 2 3 4 4 4 3 3 2 3 3 4 4 3 3 3 3 3 3 2 2 2 1 1 0 0 0 0 0 1 1 0 -0 -0 -1 -2
3 2 2 1 1 0 -0 -0 0 1 2 2 2 2 1 1 0 -0 -1 -1 -1 -2 -3 -2 -2 -3 -5 -8 -10 -9 -5 5 9 6 -1 -3 -5 -5 -1 -1 -1 -2 -4 -13 -19 -17 -4 10 12 8 0 0 1 3 4 3 3 2 2 2 3 4 5 4 3 2 3 3 2 2 2 1 1 1 0 1 1 1 1 2 2 1 -1 -1 -2 -2
1 1 -0 0 0 0 -0 -0 0 1 2 2 3 3 2 1 1 0 -0 -0 -1 -1 -2 -2 -2 -1 -2 -5 -9 -12 -12 0 8 8 2 -1 -4 -4 -0 -1 -3 -2 0 -6 -16 -24 -26 -8 7 14 8 2 1 2 4 3 2 1 0 1 1 3 4 4 3 2 2 3 2 2 2 1 1 1 1 1 2 2 2 3 3 2 0 -2 -2 -2
-0 -1 -1 -1 -1 -0 -0 -0 0 1 1 2 2 2 2 1 1 0 -0 -0 -0 -1 -2 -2 -1 -1 0 -1 -4 -8 -11 -3 4 6 2 -1 -5 -5 -1 -1 -3 -4 0 1 -4 -13 -26 -25 -11 4 9 5 3 2 3 3 2 1 -0 -1 -0 1 4 4 3 1 1 2 3 3 4 3 3 2 2 3 3 3 3 4 5 4 1 -1 -2 -3
-1 -1 -1 -1 -1 -0 0 1 0 0 1 1 1 1 1 1 1 1 1 0 0 -0 -1 -2 -2 -2 -1 -1 -2 -4 -5 -0 3 4 2 -2 -5 -6 -4 -2 -2 -4 -2 -0 -0 -4 -12 -20 -19 -12 -2 3 4 4 3 3 2 1 -0 -2 -2 -1 2 3 2 1 1 1 2 3 4 5 4 4 4 4 4 4 4 5 5 5 3 0 -2 -4
-1 -1 -1 -0 -0 1 1 1 1 0 -0 0 1 1 1 1 1 1 1 1 1 0 -0 -1 -2 -3 -4 -5 -5 -5 -3 3 6 6 3 1 -2 -4 -5 -2 -2 -3 -4 -3 -3 -4 -7 -12 -14 -15 -15 -7 1 6 5 2 1 0 1 -0 -2 -3 -1 0 1 -0 -0 1 1 2 3 3 3 3 3 4 4 4 4 4 5 5 5 3 0 -3
-1 -0 0 1 1 1 1 1 0 0 -0 -0 0 0 0 0 0 1 1 0 0 0 1 1 0 -1 -2 -4 -6 -7 -6 1 6 8 6 4 1 -2 -4 -2 -1 -1 -4 -5 -4 -4 -7 -9 -9 -10 -15 -16 -8 3 9 5 2 -0 0 1 -0 -2 -2 -0 -1 -2 -2 -1 0 1 1 1 0 0 1 3 3 3 2 3 4 5 5 5 4 1
-0 1 1 1 1 0 0 -0 -0 -0 -0 -0 1 1 1 0 0 -0 -0 -0 0 0 1 1 2 2 1 -1 -3 -5 -6 -2 3 7 8 6 3 0 -2 -2 0 1 -1 -5 -5 -5 -6 -9 -9 -8 -9 -15 -14 -9 2 6 5 3 1 1 1 0 0 1 1 -1 -3 -2 -2 -1 -0 -1 -1 -1 0 2 3 3 3 4 5 5 5 5 5 4
1 1 2 1 0 -1 -1 -1 -1 -1 -1 -0 1 1 1 1 0 -0 -1 -0 0 1 1 2 2 2 2 1 -0 -2 -4 -3 0 3 6 6 5 3 0 -1 1 3 3 -1 -4 -5 -6 -9 -10 -10 -7 -8 -11 -12 -11 -4 0 3 3 3 2 1 1 2 2 1 -1 -3 -3 -2 -1 -1 -1 -1 0 2 3 3 3 4 6 6 5 4 3 4
1 1 2 1 -0 -1 -2 -2 -2 -1 -1 -0 0 1 1 1 0 -0 -1 -0 1 1 1 1 1 2 2 2 1 -0 -1 -2 -1 1 3 4 5 4 3 0 0 2 4 2 -0 -3 -4 -7 -9 -11 -11 -9 -7 -6 -7 -7 -6 -4 -1 1 3 3 2 1 1 0 -1 -2 -3 -3 -1 1 1 0 -0 1 1 1 0 2 4 5 4 2 2 4
1 1 1 0 -1 -2 -3 -3 -2 -2 -1 -0 0 1 1 1 1 1 1 1 1 1 1 0 -0 -0 0 1 1 0 -0 -1 -1 -1 1 3 4 5 4 2 0 -0 1 2 1 0 -1 -3 -5 -7 -9 -11 -10 -8 -4 -3 -3 -5 -6 -6 -2 2 6 3 1 -1 -1 -2 -3 -3 -1 2 2 1 -1 -2 -1 -1 -2 -0 2 4 3 0 0 3
0 -0 -0 -0 -1 -1 -2 -2 -2 -2 -2 -1 -0 1 1 1 2 2 3 3 3 2 1 0 -0 -0 -0 0 1 1 0 -0 -0 -0 1 2 3 4 4 1 -0 -1 -1 0 1 2 2 -1 -4 -4 -3 -6 -9 -10 -8 -4 -2 -2 -6 -11 -11 -6 2 4 2 -0 -1 -1 -1 -1 -2 -1 -0 -0 -1 -1 -1 -0 -0 -0 1 2 2 -0 -2 -2
-1 -2 -2 -2 -2 -1 -1 -1 -1 -2 -2 -2 -1 -0 0 1 1 1 2 3 3 2 1 -0 -1 -1 0 2 3 4 2 1 1 1 1 1 2 2 1 0 -0 -0 -0 -0 0 1 3 1 -2 -4 -2 -3 -6 -9 -8 -4 -1 -1 -4 -9 -11 -10 -3 2 3 1 -2 -1 0 1 -0 -2 -2 -1 -1 -0 1 3 3 2 1 1 1 1 -0 -2
-2 -2 -2 -2 -2 -2 -1 -1 -0 -1 -1 -1 -1 -1 -0 -1 -1 -1 -1 -0 0 1 1 -0 -2 -3 -3 0 4 6 6 4 2 1 0 0 1 0 -0 -0 0 0 0 -1 -1 -0 2 2 1 -1 -2 -2 -5 -8 -10 -6 -2 1 0 -5 -10 -12 -10 -0 6 7 1 -2 -0 2 1 -1 -2 -2 -1 -0 1 2 4 4 4 3 2 1 1 0
-1 -1 -1 -1 -1 -1 -1 -1 -1 -1 -1 -1 -0 -0 0 -0 -1 -1 -2 -2 -1 -0 -0 -1 -2 -3 -4 -3 -0 4 6 6 5 3 1 1 0 0 -0 -0 -0 0 1 -1 -3 -4 -2 2 3 2 0 -1 -2 -5 -7 -6 -4 -1 1 -1 -5 -10 -15 -9 0 7 6 3 2 1 1 -1 -2 -2 -1 -0 1 1 3 4 5 5 4 2 0 -0
-2 -1 -1 -2 -2 -2 -2 -1 -1 -1 -1 -0 -0 0 1 1 0 -0 -2 -2 -2 -1 -1 -2 -3 -3 -4 -3 -2 -1 1 4 6 6 5 4 2 1 0 -0 -0 0 2 1 -1 -4 -7 -4 -0 3 4 2 -0 -2 -3 -2 -2 -1 1 1 -0 -3 -7 -7 -4 -1 1 2 2 2 1 -1 -2 -2 -2 0 1 2 2 2 3 4 4 2 0 -1
-2 -2 -2 -2 -2 -2 -2 -2 -1 -1 -0 -0 0 1 1 1 1 0 -1 -2 -3 -2 -2 -2 -4 -5 -6 -4 -3 -2 -2 0 3 6 6 6 6 5 3 2 1 1 1 2 2 1 -1 -4 -4 -1 3 4 3 2 1 -0 -2 -2 -0 1 1 -1 -2 -0 0 -0 -2 -2 -0 1 2 1 -1 -2 -3 -1 1 3 4 3 2 1 1 1 0 -1
-3 -3 -3 -2 -2 -1 -1 -1 -1 -0 -0 0 1 1 1 1 1 0 -0 -2 -3 -3 -2 -1 -1 -3 -5 -5 -4 -4 -4 -3 -1 2 4 5 6 6 5 4 4 3 2 1 1 2 3 2 0 -1 -1 -0 1 3 5 3 -0 -3 -4 -1 -0 -1 -1 1 3 3 0 -2 -2 -0 2 1 0 -1 -2 -2 -1 2 5 5 3 0 -2 -1 -1 -0
-2 -3 -3 -2 -2 -1 -1 -0 -0 -0 -0 1 1 1 1 0 -0 -1 -1 -1 -1 -2 -2 -1 -0 -0 -2 -2 -3 -4 -5 -6 -5 -3 -0 1 2 3 4 4 4 4 4 3 1 1 1 3 3 3 1 -1 -2 -2 2 4 2 -1 -4 -4 -3 -2 -2 -0 1 2 1 -1 -1 -1 -0 -0 -1 -1 -1 -1 -0 2 5 6 5 3 -1 -2 -2 -1
-2 -3 -3 -2 -2 -1 -0 -0 -0 -0 -0 0 1 1 1 1 -0 -1 -2 -1 -1 -1 -1 -1 -1 -1 -1 -1 -0 -0 -2 -4 -5 -5 -3 -2 -1 -0 1 2 2 3 3 3 3 3 2 3 4 5 5 2 -1 -4 -4 -1 -0 -1 -4 -4 -4 -4 -5 -3 -0 1 0 -0 0 1 1 1 -1 -2 -4 -4 -2 1 4 6 6 5 1 -0 -2 -2
-2 -2 -2 -2 -2 -1 -0 0 0 -0 -0 -0 -0 0 1 2 2 1 -1 -1 -1 -1 -1 -2 -2 -2 -2 -2 -0 0 -0 -1 -2 -2 -2 -1 -2 -2 -1 -0 0 0 0 2 3 4 3 5 7 8 8 5 0 -4 -6 -4 -3 -3 -4 -4 -4 -5 -6 -4 -2 0 1 -0 1 2 4 5 4 2 -2 -6 -6 -3 2 5 6 5 3 1 -0 -2
-1 -1 -1 -1 -1 -1 -0 0 0 -0 -0 -1 -1 -1 -0 1 2 2 2 0 -0 -1 -1 -1 -2 -2 -3 -2 -1 -0 -0 -1 -2 -2 -1 -1 -1 -2 -2 -2 -2 -3 -4 -3 -0 2 2 3 7 11 14 10 5 -1 -5 -6 -6 -4 -3 -2 -1 -2 -4 -4 -2 -0 1 0 1 2 4 5 5 3 0 -4 -5 -4 -0 4 6 5 4 2 1 -1
-0 -0 -0 -0 -0 -0 0 1 0 0 -0 -1 -1 -1 -1 -0 1 1 1 1 -0 -1 -1 -0 -0 -1 -2 -2 -2 -1 -0 -1 -2 -3 -2 -1 -1 -1 -2 -2 -2 -4 -6 -7 -6 -4 -2 -1 2 8 17 19 14 7 2 -2 -5 -6 -4 -1 1 1 -2 -3 -2 -0 1 2 2 3 3 3 2 2 1 -2 -4 -5 -2 2 5 5 3 2 0 -0
Height
2951 2948 2946 2944 2942 2940 2937 2936 2934 2932 2929 2926 2925 2923 2921 2919 2917 2915 2913 2911 2909 2907 2905 2903 2902 2901 2900 2899 2898 2896 2895 2893 2892 2891 2890 2888 2887 2885 2884 2883 2882 2881 2880 2879 2878 2877 2876 2875 2874 2873 2872 2871 2871 2870 2869 2868 2868 2867 2866 2866 2866 2865 2864 2864 2863 2862 2862 2861 2860 2860 2859 2858 2857 2856 2856 2856 2855 2855 2854 2854 2854 2853 2853 2853 2852 2852
2947 2945 2942 2940 2939 2937 2934 2931 2930 2928 2926 2923 2921 2918 2917 2915 2913 2911 2909 2907 2905 2903 2901 2900 2898 2897 2896 2895 2894 2893 2891 2890 2889 2888 2886 2885 2884 2883 2881 2881 2879 2878 2877 2876 2875 2874 2873 2872 2871 2870 2869 2868 2867 2866 2866 2865 2864 2863 2862 2861 2861 2860 2860 2859 2858 2858 2857 2856 2856 2855 2854 2853 2853 2852 2852 2851 2851 2851 2850 2850 2850 2849 2849 2848 2848 2848
2944 2941 2938 2936 2935 2933 2930 2928 2926 2923 2921 2919 2917 2915 2913 2911 2909 2906 2905 2903 2901 2900 2898 2896 2895 2894 2892 2891 2890 2890 2888 2887 2886 2885 2884 2882 2881 2880 2879 2878 2877 2876 2875 2874 2873 2871 2871 2869 2868 2867 2866 2866 2864 2863 2862 2861 2860 2859 2858 2857 2856 2856 2855 2854 2853 2852 2852 2851 2850 2849 2849 2848 2848 2847 2847 2847 2846 2846 2846 2846 2845 2845 2845 2844 2844 2844
2940 2937 2934 2932 2930 2928 2926 2924 2922 2920 2917 2915 2913 2911 2909 2907 2905 2902 2901 2899 2898 2896 2895 2893 2892 2891 2889 2888 2887 2886 2885 2884 2883 2882 2881 2880 2879 2877 2876 2876 2874 2873 2872 2871 2870 2869 2868 2867 2866 2865 2864 2863 2861 2861 2860 2858 2857 2856 2855 2854 2853 2852 2851 2850 2849 2848 2847 2846 2845 2844 2844 2843 2843 2843 2842 2842 2842 2842 2841 2841 2841 2841 2841 2840 2840 2840
2936 2934 2931 2928 2926 2924 2922 2920 2918 2916 2913 2911 2909 2907 2905 2903 2901 2899 2897 2896 2894 2893 2891 2890 2889 2888 2886 2885 2884 2883 2882 2881 2880 2879 2878 2877 2876 2875 2874 2873 2872 2871 2870 2869 2868 2866 2866 2864 2863 2862 2861 2860 2859 2857 2856 2855 2854 2853 2852 2851 2850 2849 2847 2846 2845 2844 2843 2842 2841 2840 2840 2839 2839 2838 2838 2838 2837 2837 2837 2837 2836 2836 2836 2836 2836 2836
2931 2930 2927 2925 2922 2920 2918 2916 2914 2912 2909 2906 2904 2902 2901 2900 2897 2896 2894 2892 2891 2889 2888 2887 2886 2885 2884 2882 2881 2880 2880 2879 2878 2877 2876 2875 2874 2873 2872 2871 2870 2868 2867 2866 2865 2864 2863 2861 2860 2859 2858 2857 2856 2854 2853 2852 2851 2850 2849 2847 2846 2845 2844 2842 2841 2840 2839 2838 2837 2836 2836 2835 2834 2834 2833 2833 2833 2832 2832 2832 2832 2831 2831 2831 2831 2831
2927 2925 2923 2921 2919 2916 2914 2912 2910 2908 2906 2903 2900 2898 2897 2896 2895 2893 2891 2890 2888 2886 2885 2884 2883 2883 2881 2880 2879 2877 2877 2876 2876 2875 2874 2873 2871 2871 2869 2868 2867 2866 2865 2864 2862 2861 2860 2859 2857 2856 2855 2854 2852 2851 2850 2849 2847 2846 2845 2844 2842 2841 2840 2838 2837 2836 2835 2834 2833 2832 2832 2831 2830 2830 2829 2829 2828 2828 2828 2828 2827 2827 2827 2827 2827 2827
2924 2921 2919 2917 2915 2913 2910 2908 2906 2904 2903 2901 2898 2895 2894 2892 2891 2890 2889 2888 2886 2885 2883 2881 2880 2880 2879 2878 2876 2875 2874 2874 2873 2872 2871 2870 2869 2868 2866 2865 2864 2863 2862 2861 2860 2858 2857 2856 2854 2853 2852 2851 2849 2848 2847 2846 2844 2843 2841 2840 2838 2837 2836 2835 2834 2832 2831 2831 2830 2829 2828 2827 2826 2826 2825 2824 2824 2824 2823 2823 2823 2823 2823 2823 2823 2822
2920 2918 2916 2913 2911 2909 2907 2904 2902 2900 2900 2898 2896 2893 2891 2890 2888 2886 2885 2885 2884 2883 2881 2879 2877 2877 2876 2876 2875 2873 2872 2871 2871 2870 2869 2867 2866 2865 2863 2862 2861 2860 2859 2858 2856 2855 2854 2853 2851 2850 2849 2847 2846 2845 2843 2842 2841 2839 2837 2836 2835 2833 2832 2831 2830 2829 2828 2827 2826 2825 2824 2823 2822 2821 2821 2820 2820 2819 2819 2819 2819 2819 2819 2819 2819 2819
2916 2914 2912 2910 2907 2906 2904 2902 2900 2898 2897 2895 2893 2891 2890 2888 2886 2884 2882 2881 2881 2881 2880 2878 2876 2874 2873 2873 2872 2871 2870 2869 2869 2868 2866 2865 2863 2861 2860 2859 2858 2857 2856 2855 2853 2852 2851 2850 2848 2847 2846 2844 2843 2841 2840 2838 2836 2835 2833 2832 2831 2830 2829 2828 2827 2826 2825 2823 2822 2821 2820 2819 2818 2817 2816 2816 2816 2815 2815 2815 2815 2815 2814 2815 2815 2814
2913 2911 2909 2906 2904 2902 2901 2899 2897 2896 2895 2893 2891 2889 2888 2887 2886 2883 2880 2878 2877 2877 2877 2876 2874 2872 2871 2870 2869 2869 2867 2866 2866 2865 2864 2862 2860 2858 2856 2855 2855 2854 2852 2851 2850 2849 2848 2846 2845 2844 2843 2841 2840 2838 2836 2834 2833 2831 2830 2828 2827 2826 2826 2825 2823 2822 2821 2820 2819 2817 2816 2815 2814 2813 2812 2812 2811 2811 2811 2810 2810 2810 2810 2810 2810 2810
2910 2907 2905 2903 2901 2900 2898 2897 2895 2894 2893 2892 2890 2887 2885 2884 2883 2882 2879 2876 2875 2874 2873 2872 2872 2871 2869 2867 2866 2865 2865 2864 2863 2861 2860 2858 2856 2855 2853 2852 2851 2851 2849 2848 2847 2846 2845 2844 2842 2841 2840 2838 2836 2835 2833 2831 2829 2827 2826 2825 2824 2823 2822 2821 2820 2819 2818 2817 2816 2814 2813 2812 2811 2810 2809 2808 2807 2807 2806 2806 2806 2806 2806 2806 2806 2806
2906 2904 2902 2901 2899 2898 2897 2895 2893 2892 2891 2890 2888 2885 2883 2881 2881 2879 2877 2875 2873 2872 2871 2869 2868 2868 2868 2866 2864 2862 2861 2860 2859 2858 2857 2855 2853 2851 2850 2848 2848 2847 2846 2845 2844 2843 2842 2841 2839 2838 2837 2835 2833 2831 2829 2827 2826 2824 2823 2822 2821 2821 2820 2818 2817 2816 2815 2814 2812 2811 2810 2808 2807 2806 2805 2804 2803 2803 2802 2802 2801 2801 2801 2801 2801 2801
2904 2902 2900 2899 2897 2896 2895 2894 2892 2890 2888 2887 2886 2884 2881 2880 2878 2877 2875 2873 2871 2870 2869 2867 2866 2865 2865 2864 2863 2861 2858 2856 2855 2854 2853 2852 2851 2849 2846 2845 2844 2844 2843 2841 2841 2840 2839 2837 2836 2835 2834 2832 2830 2828 2826 2824 2823 2821 2821 2820 2819 2818 2817 2816 2815 2813 2812 2811 2809 2808 2807 2806 2804 2803 2802 2801 2800 2799 2799 2798 2797 2797 2797 2797 2797 2797
2902 2901 2899 2896 2895 2895 2894 2892 2890 2888 2886 2885 2883 2881 2880 2878 2876 2875 2873 2871 2869 2868 2866 2865 2863 2863 2862 2862 2861 2858 2856 2853 2852 2851 2850 2849 2848 2846 2844 2842 2841 2841 2840 2839 2837 2837 2836 2835 2833 2831 2830 2829 2827 2825 2823 2821 2820 2819 2818 2818 2817 2816 2815 2813 2812 2811 2810 2808 2807 2806 2804 2803 2802 2801 2799 2798 2797 2796 2796 2795 2794 2794 2793 2793 2792 2792
2900 2898 2896 2895 2893 2893 2892 2891 2889 2886 2884 2883 2881 2880 2878 2876 2874 2873 2871 2869 2867 2866 2864 2862 2860 2859 2859 2860 2859 2857 2854 2851 2849 2847 2846 2845 2845 2845 2842 2840 2838 2837 2837 2836 2835 2834 2833 2831 2830 2829 2827 2826 2824 2822 2820 2819 2818 2817 2816 2816 2815 2814 2812 2811 2810 2809 2807 2806 2805 2804 2802 2801 2800 2799 2797 2796 2795 2794 2793 2792 2791 2791 2790 2790 2789 2789
2898 2896 2895 2893 2891 2891 2890 2888 2887 2885 2883 2881 2879 2878 2876 2874 2873 2871 2869 2867 2866 2864 2862 2860 2858 2856 2855 2855 2856 2856 2853 2849 2846 2844 2843 2842 2842 2842 2841 2838 2836 2834 2834 2834 2832 2831 2830 2828 2827 2826 2824 2823 2821 2819 2817 2816 2816 2815 2815 2814 2813 2811 2811 2809 2808 2807 2806 2805 2803 2802 2801 2800 2798 2797 2796 2795 2793 2792 2791 2790 2789 2788 2787 2787 2786 2786
2896 2895 2893 2891 2890 2888 2887 2886 2885 2883 2881 2879 2877 2876 2874 2873 2871 2870 2868 2866 2864 2862 2860 2859 2856 2854 2852 2851 2852 2853 2852 2848 2844 2842 2840 2839 2839 2839 2838 2836 2834 2832 2831 2831 2830 2828 2827 2826 2825 2823 2822 2820 2818 2817 2816 2815 2814 2813 2813 2812 2811 2810 2808 2807 2806 2805 2804 2803 2801 2801 2799 2798 2797 2795 2794 2793 2791 2790 2789 2788 2787 2786 2785 2785 2784 2783
2894 2893 2892 2890 2888 2886 2885 2885 2883 2881 2879 2877 2876 2874 2872 2871 2870 2868 2866 2865 2863 2861 2859 2856 2855 2853 2851 2850 2850 2850 2850 2846 2842 2840 2838 2836 2836 2836 2836 2834 2831 2830 2829 2828 2827 2826 2824 2823 2822 2821 2820 2818 2816 2815 2814 2813 2812 2811 2811 2810 2809 2808 2806 2806 2804 2803 2802 2801 2800 2799 2797 2796 2795 2793 2792 2791 2790 2788 2787 2786 2785 2784 2783 2782 2782 2781
2891 2891 2890 2889 2887 2884 2883 2882 2882 2880 2878 2876 2874 2872 2871 2869 2868 2866 2865 2862 2861 2859 2856 2855 2853 2851 2850 2848 2848 2848 2847 2845 2841 2838 2836 2834 2834 2834 2833 2831 2828 2826 2826 2825 2824 2823 2821 2820 2819 2818 2817 2816 2814 2813 2812 2811 2810 2809 2809 2808 2806 2806 2805 2804 2803 2802 2801 2799 2798 2797 2796 2794 2793 2791 2790 2789 2788 2786 2786 2784 2783 2782 2781 2781 2780 2779
2889 2888 2888 2887 2886 2883 2881 2881 2880 2879 2877 2875 2873 2871 2869 2867 2866 2864 2862 2860 2858 2857 2855 2853 2851 2850 2849 2847 2846 2846 2845 2843 2840 2836 2834 2832 2831 2831 2831 2828 2826 2824 2822 2822 2821 2820 2819 2817 2816 2816 2815 2813 2812 2811 2810 2809 2808 2807 2806 2806 2805 2804 2803 2802 2801 2800 2799 2798 2796 2795 2794 2792 2791 2790 2788 2787 2786 2785 2783 2782 2781 2780 2779 2778 2777 2776
2888 2886 2886 2885 2884 2882 2880 2879 2878 2877 2876 2874 2872 2870 2867 2866 2863 2861 2860 2859 2857 2856 2854 2852 2851 2849 2848 2846 2845 2845 2844 2841 2838 2835 2831 2829 2827 2827 2828 2826 2823 2821 2820 2819 2818 2817 2816 2815 2814 2813 2812 2811 2810 2809 2808 2807 2806 2806 2805 2804 2803 2802 2801 2800 2799 2798 2797 2796 2795 2794 2792 2791 2790 2788 2787 2785 2784 2783 2781 2780 2779 2778 2777 2776 2775 2774
2887 2886 2885 2884 2882 2881 2879 2878 2877 2876 2874 2872 2870 2868 2866 2864 2862 2861 2859 2857 2856 2854 2852 2850 2849 2848 2847 2845 2844 2843 2842 2840 2837 2833 2830 2826 2824 2824 2824 2823 2821 2818 2817 2816 2815 2814 2813 2813 2812 2811 2810 2809 2808 2807 2806 2805 2805 2804 2803 2802 2801 2801 2800 2799 2798 2797 2796 2795 2793 2792 2791 2789 2788 2786 2785 2783 2782 2781 2779 2778 2777 2776 2775 2774 2773 2771
2886 2884 2883 2882 2881 2880 2878 2877 2875 2874 2872 2870 2868 2866 2865 2864 2862 2860 2858 2856 2854 2852 2850 2848 2846 2846 2845 2844 2843 2841 2840 2838 2836 2832 2829 2825 2823 2822 2821 2820 2818 2816 2815 2814 2813 2811 2811 2810 2810 2809 2808 2807 2806 2805 2804 2803 2803 2802 2801 2801 2800 2799 2798 2797 2796 2795 2794 2792 2791 2790 2789 2787 2786 2784 2783 2781 2780 2779 2777 2776 2775 2773 2772 2771 2770 2769
2884 2883 2882 2881 2880 2879 2877 2876 2874 2872 2871 2869 2867 2866 2864 2862 2860 2858 2857 2855 2853 2851 2848 2846 2845 2844 2843 2842 2841 2839 2838 2837 2835 2832 2828 2824 2821 2820 2820 2819 2816 2814 2812 2811 2810 2809 2808 2807 2807 2807 2806 2805 2804 2803 2802 2802 2801 2800 2800 2799 2798 2797 2796 2795 2794 2793 2791 2791 2789 2788 2786 2785 2784 2782 2781 2779 2778 2776 2775 2773 2772 2771 2769 2768 2766 2765
2883 2882 2881 2880 2879 2877 2876 2874 2873 2871 2870 2868 2866 2863 2861 2859 2857 2856 2855 2853 2851 2849 2847 2845 2843 2842 2841 2840 2838 2837 2836 2836 2834 2831 2827 2823 2820 2818 2817 2817 2815 2812 2809 2808 2808 2807 2806 2805 2805 2805 2804 2803 2802 2801 2801 2800 2799 2798 2798 2797 2796 2795 2794 2793 2792 2791 2790 2788 2787 2786 2785 2783 2781 2780 2778 2777 2775 2773 2772 2770 2769 2767 2766 2764 2763 2761
2883 2881 2880 2879 2878 2876 2875 2873 2871 2870 2868 2866 2864 2861 2859 2857 2855 2853 2852 2851 2849 2847 2845 2843 2841 2840 2839 2838 2836 2836 2835 2834 2832 2829 2826 2822 2819 2816 2815 2814 2813 2810 2807 2806 2805 2804 2803 2802 2802 2802 2801 2801 2800 2799 2799 2798 2797 2796 2796 2795 2794 2793 2792 2791 2790 2789 2788 2786 2785 2784 2782 2781 2779 2777 2776 2774 2772 2770 2769 2767 2765 2764 2762 2760 2758 2757
2882 2881 2879 2878 2876 2874 2873 2871 2869 2868 2866 2864 2862 2860 2858 2855 2853 2851 2850 2849 2847 2846 2844 2842 2840 2838 2837 2836 2835 2834 2833 2832 2830 2827 2824 2821 2817 2815 2814 2813 2811 2809 2806 2804 2802 2802 2801 2801 2800 2799 2799 2798 2798 2797 2796 2796 2795 2794 2794 2793 2792 2791 2790 2789 2788 2787 2786 2784 2783 2781 2780 2778 2776 2775 2773 2771 2769 2767 2765 2764 2762 2760 2758 2756 2755 2753
2881 2879 2878 2876 2874 2872 2871 2869 2867 2866 2864 2862 2860 2858 2856 2854 2852 2850 2849 2847 2846 2844 2842 2841 2839 2837 2836 2834 2833 2832 2832 2831 2829 2826 2822 2819 2816 2814 2813 2812 2810 2808 2805 2802 2799 2798 2799 2798 2798 2797 2796 2796 2796 2795 2794 2794 2793 2792 2792 2791 2791 2790 2788 2787 2786 2784 2783 2782 2781 2779 2777 2776 2774 2772 2770 2768 2766 2764 2762 2761 2759 2757 2755 2753 2751 2749
2879 2877 2876 2874 2872 2870 2868 2867 2865 2864 2862 2861 2859 2857 2855 2853 2851 2849 2847 2846 2845 2843 2841 2840 2838 2837 2835 2833 2831 2830 2830 2830 2828 2825 2821 2818 2816 2814 2812 2811 2809 2807 2805 2801 2797 2794 2794 2795 2796 2795 2794 2793 2793 2793 2792 2791 2791 2790 2789 2789 2788 2787 2786 2785 2783 2782 2781 2780 2778 2776 2775 2773 2771 2769 2767 2765 2763 2761 2760 2758 2756 2754 2751 2749 2747 2745
2877 2875 2873 2871 2870 2868 2866 2865 2863 2862 2860 2859 2857 2855 2853 2851 2850 2848 2846 2845 2843 2842 2841 2839 2837 2836 2834 2832 2830 2828 2827 2828 2827 2825 2821 2818 2815 2813 2811 2809 2807 2806 2804 2801 2797 2793 2790 2790 2791 2793 2792 2791 2791 2791 2790 2789 2788 2788 2787 2786 2786 2785 2784 2782 2781 2779 2778 2777 2776 2774 2772 2770 2768 2766 2765 2763 2761 2759 2757 2755 2753 2751 2748 2746 2743 2741
2874 2873 2871 2869 2868 2866 2865 2863 2861 2860 2858 2857 2855 2854 2852 2850 2848 2847 2846 2844 2842 2841 2839 2838 2836 2835 2834 2832 2829 2827 2826 2826 2825 2823 2820 2817 2813 2811 2810 2808 2806 2804 2803 2801 2799 2795 2790 2787 2787 2788 2789 2789 2788 2788 2788 2787 2786 2785 2784 2783 2782 2782 2781 2780 2778 2776 2775 2774 2773 2771 2770 2768 2766 2764 2762 2760 2758 2756 2754 2752 2751 2748 2745 2742 2739 2737
2872 2871 2869 2867 2866 2865 2863 2861 2860 2858 2856 2855 2853 2852 2850 2849 2847 2846 2844 2843 2841 2840 2838 2836 2835 2834 2832 2830 2828 2826 2825 2824 2823 2821 2819 2816 2812 2810 2808 2806 2805 2803 2801 2800 2798 2796 2792 2788 2786 2785 2785 2786 2786 2786 2785 2784 2783 2782 2781 2780 2779 2778 2777 2776 2775 2773 2772 2771 2770 2768 2767 2765 2763 2761 2759 2757 2755 2753 2751 2750 2747 2745 2742 2739 2736 2733
2870 2869 2867 2866 2865 2863 2861 2860 2858 2856 2855 2853 2851 2850 2849 2847 2846 2845 2843 2842 2840 2839 2837 2836 2834 2832 2831 2828 2826 2825 2824 2823 2822 2820 2817 2815 2812 2809 2807 2805 2804 2801 2799 2797 2796 2794 2791 2788 2786 2784 2782 2782 2783 2783 2782 2781 2781 2780 2779 2777 2776 2775 2774 2773 2771 2770 2768 2767 2766 2765 2763 2761 2760 2758 2756 2754 2752 2750 2748 2746 2744 2742 2740 2737 2734 2731
2869 2867 2866 2865 2863 2861 2860 2858 2856 2855 2853 2851 2850 2848 2847 2846 2844 2843 2842 2841 2839 2838 2836 2835 2833 2831 2829 2827 2825 2823 2822 2822 2821 2819 2817 2814 2811 2808 2806 2804 2803 2801 2798 2796 2793 2791 2789 2786 2785 2783 2781 2779 2779 2780 2780 2779 2778 2777 2776 2775 2774 2772 2771 2770 2768 2766 2765 2764 2762 2761 2759 2757 2756 2754 2752 2750 2749 2747 2745 2743 2741 2739 2736 2734 2732 2729
2867 2866 2865 2863 2861 2860 2858 2856 2855 2853 2851 2850 2848 2847 2845 2844 2843 2841 2841 2839 2838 2836 2835 2833 2832 2830 2828 2826 2824 2822 2821 2820 2819 2818 2816 2814 2811 2808 2805 2803 2802 2800 2797 2794 2792 2790 2787 2785 2783 2781 2780 2778 2776 2776 2776 2777 2776 2775 2774 2773 2771 2770 2769 2767 2766 2763 2761 2760 2758 2757 2756 2754 2752 2750 2748 2747 2745 2743 2741 2740 2738 2736 2733 2731 2729 2726
2866 2865 2863 2861 2860 2858 2856 2855 2853 2851 2850 2848 2846 2845 2844 2842 2841 2840 2839 2838 2837 2835 2834 2832 2831 2829 2827 2826 2824 2821 2820 2818 2817 2816 2815 2813 2810 2808 2805 2802 2801 2799 2797 2794 2791 2788 2786 2783 2781 2779 2778 2776 2775 2773 2772 2772 2772 2772 2771 2770 2769 2767 2766 2765 2763 2761 2759 2757 2755 2753 2752 2750 2748 2746 2744 2743 2741 2740 2738 2736 2734 2732 2730 2727 2725 2723
2865 2863 2862 2860 2858 2856 2855 2853 2851 2850 2848 2846 2845 2844 2842 2841 2840 2839 2837 2836 2835 2834 2832 2831 2829 2828 2826 2824 2822 2821 2819 2817 2816 2814 2813 2811 2809 2807 2804 2801 2799 2798 2796 2794 2791 2788 2785 2782 2780 2777 2775 2774 2773 2772 2771 2769 2768 2768 2767 2766 2766 2764 2763 2761 2760 2758 2756 2754 2752 2750 2749 2747 2745 2742 2741 2739 2737 2735 2733 2732 2730 2728 2726 2724 2722 2720
2863 2862 2860 2859 2857 2855 2853 2851 2850 2848 2846 2845 2844 2842 2841 2840 2838 2837 2836 2835 2834 2832 2831 2829 2827 2826 2824 2823 2821 2819 2817 2816 2814 2812 2811 2809 2807 2806 2803 2800 2797 2796 2794 2793 2791 2788 2785 2782 2779 2776 2774 2771 2770 2769 2768 2767 2766 2765 2763 2762 2761 2761 2760 2758 2756 2755 2753 2751 2749 2747 2745 2743 2741 2739 2737 2735 2733 2731 2729 2727 2726 2725 2722 2720 2718 2717
2861 2860 2859 2857 2856 2854 2852 2850 2848 2847 2845 2844 2842 2841 2840 2838 2837 2836 2835 2833 2832 2831 2829 2827 2825 2824 2822 2821 2819 2818 2816 2814 2812 2811 2809 2807 2806 2804 2802 2799 2796 2794 2792 2791 2789 2787 2785 2781 2778 2776 2774 2771 2768 2766 2765 2765 2764 2762 2760 2758 2756 2756 2756 2755 2753 2751 2750 2748 2746 2743 2741 2739 2737 2736 2734 2732 2730 2728 2726 2724 2723 2721 2719 2717 2715 2713
2860 2858 2857 2856 2854 2852 2851 2849 2847 2846 2844 2842 2841 2840 2838 2837 2835 2834 2833 2832 2831 2829 2827 2825 2823 2822 2821 2819 2818 2816 2815 2813 2811 2809 2807 2806 2804 2802 2800 2798 2795 2793 2791 2789 2787 2785 2783 2780 2777 2774 2772 2770 2767 2765 2763 2762 2761 2760 2758 2755 2753 2751 2751 2751 2750 2748 2746 2745 2743 2741 2738 2736 2734 2732 2731 2729 2727 2726 2724 2722 2720 2718 2717 2715 2713 2711
2858 2857 2855 2854 2852 2851 2849 2848 2846 2844 2843 2841 2839 2838 2836 2835 2833 2832 2831 2830 2828 2827 2825 2823 2821 2819 2818 2817 2816 2815 2814 2811 2810 2807 2806 2804 2802 2800 2798 2796 2794 2791 2789 2786 2784 2782 2781 2779 2776 2773 2771 2768 2766 2763 2761 2760 2759 2758 2756 2754 2751 2748 2747 2747 2747 2746 2743 2741 2740 2738 2736 2733 2731 2730 2728 2726 2725 2723 2721 2720 2718 2716 2714 2712 2711 2709
2857 2856 2854 2852 2851 2849 2848 2846 2845 2843 2841 2840 2838 2836 2835 2834 2832 2830 2829 2827 2826 2825 2823 2821 2819 2817 2815 2814 2813 2813 2812 2810 2808 2806 2804 2802 2800 2798 2796 2794 2792 2790 2787 2785 2782 2780 2778 2776 2775 2772 2770 2767 2765 2762 2759 2757 2756 2756 2754 2752 2750 2746 2744 2743 2743 2742 2741 2739 2737 2736 2733 2731 2729 2727 2725 2723 2722 2720 2719 2717 2716 2714 2712 2710 2708 2706
2856 2854 2852 2851 2849 2848 2846 2845 2843 2841 2840 2838 2837 2835 2834 2832 2831 2829 2827 2826 2824 2823 2821 2819 2817 2815 2813 2811 2810 2809 2808 2808 2807 2805 2803 2801 2799 2796 2794 2792 2790 2788 2786 2783 2780 2777 2775 2774 2772 2771 2768 2766 2763 2761 2758 2756 2755 2753 2752 2750 2748 2746 2743 2741 2740 2739 2738 2736 2735 2733 2731 2729 2726 2724 2722 2721 2720 2718 2716 2715 2713 2712 2710 2708 2706 2705
2854 2852 2851 2850 2848 2846 2845 2843 2841 2840 2838 2837 2836 2834 2833 2831 2830 2828 2826 2824 2822 2821 2819 2817 2815 2812 2810 2809 2807 2806 2805 2804 2804 2803 2801 2800 2797 2795 2793 2791 2788 2786 2784 2781 2779 2776 2774 2771 2769 2768 2766 2765 2763 2760 2758 2755 2753 2751 2749 2748 2746 2744 2742 2740 2739 2737 2735 2733 2732 2731 2729 2726 2724 2722 2720 2718 2717 2716 2714 2713 2711 2709 2707 2706 2704 2702
2853 2851 2850 2848 2846 2845 2843 2841 2840 2838 2837 2836 2835 2833 2832 2830 2829 2827 2825 2823 2821 2819 2817 2815 2813 2811 2809 2806 2805 2803 2801 2801 2800 2799 2799 2797 2796 2794 2791 2789 2787 2785 2782 2779 2777 2775 2773 2770 2768 2766 2764 2762 2761 2759 2757 2755 2751 2749 2746 2745 2743 2742 2740 2739 2737 2736 2733 2731 2730 2728 2726 2724 2722 2720 2718 2716 2715 2713 2712 2711 2709 2707 2705 2704 2702 2701
2851 2850 2848 2847 2845 2844 2842 2840 2839 2837 2836 2835 2834 2832 2831 2829 2827 2825 2823 2821 2820 2818 2816 2814 2812 2810 2807 2805 2803 2801 2799 2797 2796 2796 2795 2794 2792 2791 2789 2787 2785 2782 2780 2777 2775 2773 2771 2768 2766 2764 2762 2760 2758 2756 2755 2753 2751 2748 2745 2743 2741 2739 2737 2736 2735 2733 2731 2730 2728 2726 2724 2722 2720 2718 2716 2714 2712 2711 2710 2709 2707 2705 2703 2701 2700 2698
2851 2849 2847 2846 2844 2842 2841 2839 2838 2836 2835 2834 2832 2831 2830 2828 2826 2824 2822 2820 2818 2816 2814 2812 2810 2808 2806 2804 2802 2800 2798 2796 2794 2793 2792 2790 2789 2787 2786 2784 2782 2780 2777 2775 2773 2771 2769 2767 2765 2763 2761 2759 2756 2753 2751 2750 2748 2746 2743 2741 2738 2736 2735 2734 2732 2731 2730 2728 2726 2724 2722 2721 2718 2716 2713 2711 2710 2709 2708 2707 2705 2703 2701 2699 2698 2696
2850 2848 2846 2844 2843 2841 2840 2838 2837 2835 2834 2832 2831 2830 2828 2827 2825 2823 2821 2819 2817 2815 2813 2811 2809 2806 2804 2803 2801 2799 2797 2795 2793 2791 2790 2788 2786 2784 2782 2780 2778 2776 2774 2772 2771 2769 2767 2765 2764 2762 2760 2757 2754 2751 2749 2747 2745 2743 2741 2739 2736 2735 2733 2731 2730 2729 2727 2726 2724 2723 2721 2719 2717 2714 2712 2709 2707 2706 2706 2705 2703 2701 2699 2697 2696 2694
2849 2847 2845 2843 2842 2840 2839 2837 2836 2834 2832 2831 2830 2828 2827 2826 2824 2822 2820 2818 2816 2814 2812 2810 2807 2805 2803 2801 2799 2798 2796 2794 2792 2790 2788 2786 2784 2782 2780 2777 2775 2773 2771 2769 2767 2766 2764 2763 2762 2761 2760 2757 2754 2751 2747 2745 2743 2741 2739 2737 2736 2733 2731 2730 2728 2727 2726 2724 2722 2721 2719 2717 2715 2713 2711 2708 2706 2704 2703 2702 2701 2699 2697 2696 2694 2692
2848 2846 2844 2843 2841 2840 2838 2836 2835 2833 2831 2830 2828 2827 2825 2824 2822 2821 2819 2817 2815 2813 2811 2809 2807 2804 2802 2800 2798 2796 2795 2792 2790 2788 2786 2784 2782 2780 2777 2775 2773 2771 2768 2766 2764 2763 2761 2760 2758 2758 2758 2757 2755 2751 2748 2745 2742 2739 2737 2736 2734 2732 2730 2728 2727 2725 2724 2722 2721 2719 2717 2715 2713 2711 2709 2706 2704 2702 2701 2700 2699 2697 2695 2693 2692 2691